User: anonymous   Login
Location: Unspecified
(0.0000°N, 0.0000°E)
Time: 18:05:02
(UTC+00:00)
Language:

TBA - TO BE ASSIGNED - Orbit

View from above orbital plane
View from above orbital plane
View from above satellite
View from above satellite

Ground track
Ground track

The orbit is defined by the following mean orbital elements,

1 68918U          26145.11826993 +.00000000 +00000-0 +89941-3 0 00006
2 68918  97.2867 340.8543 0001023 106.8628 253.2735 15.49193539    03
Epoch (UTC): 25 May 2026 02:50:18
Eccentricity: 0.0001023
inclination: 97.2867°
perigee height: 418 km
apogee height: 420 km
right ascension of ascending node: 340.8543°
argument of perigee: 106.8628°
revolutions per day: 15.49193539
mean anomaly at epoch: 253.2735°

The dashed part of the orbit path shows where the satellite is in the earth's shadow,  

DLR